DMSP 5D-2 F13 DEB, 40509

Orbit data source: Space-Track

DMSP 5D-2 F13 DEB, 40509 is space debris in SSO originally from a launch on Fri, 24 Mar 1995 UTC launched from the Air Force Western Test Range (AFWTR). Debris objects in space refer to the collection of defunct objects orbiting the Earth. Examples of debris include non-operational satellites, rocket bodies, and fragments generated from explosions, collisions, or faulty payload assembly.

Loading next visibility...
Identifier
40509, 1995-015CV
Orbit
SSO
Country
Flag of USUS
Related business
Manufacturer
Unknown
Mission
Spacecraft
Bus & Motor
Unknown
Mass
Unknown
Launch date (UTC)
1995-03-24 (30 years ago)
Launch vehicle
Unknown
Launch site
Air Force Western Test Range (AFWTR)
Object type
Payload
Rocket body
Debris
Shape & HBR
Unknown
Radar Cross Section
Small (<0.1 m²)

Expand to show TLE details & history
Last TLE update: 3 days ago

TLE from 3 days ago
0 DMSP 5D-2 F13 DEB
1 40509U 95015CV  25257.48169198  .00000408  00000-0  20137-3 0  9993
2 40509  98.6629 273.5497 0024539  56.8067 303.5460 14.22543915543449
Epoch: 2025-09-14T11:33Z
TLE epoch observation values (Epoch: 2025-09-14T11:33:38.187Z)
Latitude
0.00005°
Longitude
106.44051°
Altitude
809.953 km
Speed
7.453 km/s
True Right ascension
18h 14m 11s
True Declination
0° 00' 00"
Sunlit
Object was in daylight at epoch
Visualization orbit readout
Latitude
Unknown
Longitude
Unknown
Altitude
Unknown
Speed
Unknown
Apparent Right ascension
Unknown
Apparent Declination
Unknown
Sunlit
N/A
Visualization observer readout
Local Sidereal Time
13:38:43
Azimuth
Unknown
Elevation
Unknown
Doppler factor
Unknown
Orbital elements
Apogee altitude
831.564 km
Perigee altitude
796.267 km
Semi-major axis
7,192.052 km
Eccentricity
0.00245
Inclination
98.6629°
RAAN
273.5497°
Arg. of periapsis
56.8067°
True anomaly
303.31124°
Mean anomaly
303.546°
Eccentric anomaly
303.42866°
Mean motion
3.55848 °/min
Orbital period
101.17 mins
BSTAR
0.00020137
Loading maneuver chart data...
Computing Atmospheric mass density...

Documentation

Showing up to 5 results
|